This is the latest recevied weather packets stored in our database for station/object S54Z-11. If no packets are shown the sender has not sent any weather packets the latest 10 day(s).
| Time | Temp. | Humidity | Pressure | Rain* | Wind** | Luminosity | Snow |
|---|---|---|---|---|---|---|---|
| 1777514972 | 2.22° C | 56% | 1029.4 hPa | - | - | - | - |
| 1777514107 | 2.22° C | 56% | 1029.4 hPa | - | - | - | - |
| 1777514070 | 2.22° C | 56% | 1029.4 hPa | - | - | - | - |
| 1777513170 | 2.78° C | 54% | 1029.4 hPa | - | - | - | - |
| 1777512270 | 2.78° C | 51% | 1029.4 hPa | - | - | - | - |
| 1777511370 | 2.78° C | 52% | 1029.4 hPa | - | - | - | - |
| 1777510470 | 2.78° C | 55% | 1029.3 hPa | - | - | - | - |
| 1777509570 | 2.78° C | 57% | 1029.2 hPa | - | - | - | - |
| 1777508741 | 3.33° C | 55% | 1029.1 hPa | - | - | - | - |
| 1777508670 | 3.33° C | 55% | 1029.1 hPa | - | - | - | - |
| 1777507770 | 3.33° C | 57% | 1029.1 hPa | - | - | - | - |
| 1777506870 | 2.78° C | 66% | 1028.8 hPa | - | - | - | - |
| 1777505970 | 3.33° C | 67% | 1028.7 hPa | - | - | - | - |
| 1777505070 | 3.33° C | 68% | 1028.6 hPa | - | - | - | - |
| 1777504169 | 3.33° C | 74% | 1028.4 hPa | - | - | - | - |
| 1777503269 | 3.33° C | 83% | 1028.2 hPa | - | - | - | - |
| 1777502369 | 3.89° C | 78% | 1028.1 hPa | - | - | - | - |
| 1777501469 | 3.89° C | 89% | 1028.1 hPa | - | - | - | - |
| 1777500569 | 3.89° C | 100% | 1028 hPa | - | - | - | - |
| 1777499686 | 3.89° C | 100% | 1027.8 hPa | - | - | - | - |
| 1777499669 | 3.89° C | 100% | 1027.8 hPa | - | - | - | - |
| 1777498769 | 3.89° C | 100% | 1027.6 hPa | - | - | - | - |
| 1777497869 | 3.33° C | 100% | 1027.5 hPa | - | - | - | - |
| 1777496969 | 3.89° C | 100% | 1027.3 hPa | - | - | - | - |
| 1777496069 | 2.78° C | 100% | 1027.3 hPa | - | - | - | - |
* Rain since midnight (hover to see other rain measurements)
** Current wind speed in m/s (hover to see current wind gust speed)